Location: Newark
(31.5350°N, 35.0986°E)
Time: 08:29:02
(UTC+00:00)

Transit 4A - Pass Details

Date: 27 October 2019
Orbit: 868 x 976 km, 66.8° (Epoch: 17 November)

Event Time Altitude Azimuth Distance (km) Brightness Sun altitude
Rises 01:33:15 0° 240° (WSW) 3,657 - -30.0°
Reaches altitude 10° 01:36:23 10° 254° (WSW) 2,706 - -29.3°
Maximum altitude 01:41:17 23° 305° (NW) 1,905 - -28.3°
Exits shadow 01:44:51 15° 347° (NNW) 2,345 9.9 -27.5°
Drops below altitude 10° 01:46:10 10° 357° (N) 2,672 10.3 -27.2°
Sets 01:49:15 0° 11° (NNE) 3,601 11.1 -26.6°
